Regional Weather Roundup
Issued by NWS

Home | Current Version | Previous Version | Graphics & Text | Print | Product List | Glossary On
Versions: 1 2 3 4 5 6 7 8 9 10 11 12 13 14 15 16 17 18 19 20 21 22 23 24 25 26 27 28 29 30 31 32 33 34 35 36 37 38 39 40 41 42 43 44 45 46 47 48 49 50
155
ASUS43 KOAX 020302
RWRNE

WEATHER ROUNDUP FOR NEBRASKA
NATIONAL WEATHER SERVICE OMAHA NE
1000 PM CDT SUN MAY 01 2016

NOTES: SATELLITE DATA IS BEING USED TO AUGMENT CLOUD COVER ABOVE
       12000 FEET.
       "FAIR" INDICATES FEW OR NO CLOUDS BELOW 12,000 FEET WITH NO
       SIGNIFICANT WEATHER AND/OR OBSTRUCTIONS TO VISIBILITY.

  * THESE STATIONS DO NOT REPORT WEATHER SUCH AS RAIN...SNOW OR FOG.

NEZ001>004-019>022-054>056-020400-
NEBRASKA PANHANDLE

CITY           SKY/WX    TMP DP  RH WIND       PRES   REMARKS
SCOTTSBLUFF    CLEAR     41  33  73 S8        30.25R
ALLIANCE       CLEAR     36  31  82 S5        30.24R WCI  32
CHADRON        CLEAR     41  32  70 CALM      30.24R
KIMBALL        CLEAR     33  29  86 W7        30.27S WCI  26
SIDNEY         PTCLDY    35  29  78 W9        30.27R WCI  28
$$

NEZ057>060-069>072-079>082-020400-
SOUTHWEST NEBRASKA

CITY           SKY/WX    TMP DP  RH WIND       PRES   REMARKS
NORTH PLATTE   CLEAR     43  34  70 N7        30.22R
IMPERIAL       CLEAR     41  33  73 NW8       30.25R
LEXINGTON      CLEAR     43  39  86 CALM      30.21R
MCCOOK         MOCLDY    49  37  63 CALM      30.21R
$$

NEZ005>010-023>029-035>040-094-020400-
NORTH CENTRAL NEBRASKA

CITY           SKY/WX    TMP DP  RH WIND       PRES   REMARKS
VALENTINE      CLEAR     42  33  70 NW3       30.22R
AINSWORTH      CLEAR     45  34  66 CALM      30.22R
BROKEN BOW     CLEAR     39  35  86 N6        30.20R WCI  35
ORD            MOCLDY    43  38  82 NW5       30.20R
$$

NEZ041-046>049-061>064-073>077-083>087-020400-
SOUTH CENTRAL NEBRASKA

CITY           SKY/WX    TMP DP  RH WIND       PRES   REMARKS
GRAND ISLAND   CLOUDY    46  42  86 NW6       30.19S
AURORA         CLOUDY    47  44  91 N6        30.18S
HASTINGS       CLOUDY    46  41  82 NW7       30.18S
KEARNEY *      CLOUDY    46  39  76 CALM      30.20S
YORK           CLOUDY    46  45  93 N6        30.18S
$$

NEZ011>018-030>034-042>045-020400-
NORTHEAST NEBRASKA

CITY           SKY/WX    TMP DP  RH WIND       PRES   REMARKS
NORFOLK        CLOUDY    47  43  86 CALM      30.19R
ALBION         CLOUDY    46  41  83 N3        30.20R
BLAIR          CLOUDY    48  46  90 NW3       30.16S
COLUMBUS *     CLOUDY    46  37  71 NW6       30.19S
FREMONT        CLOUDY    48  45  89 NW3       30.17S
TEKAMAH        CLOUDY    50  45  83 NW5       30.16S
$$

NEZ050>053-065>068-078-088>093-020400-
SOUTHEAST NEBRASKA

CITY           SKY/WX    TMP DP  RH WIND       PRES   REMARKS
LINCOLN        CLOUDY    49  44  83 N7        30.17F
OMAHA EPPLEY   MOCLDY    49  45  86 N3        30.15S
BEATRICE       CLOUDY    46  44  90 N6        30.16R
FALLS CITY     CLOUDY    49  43  80 N7        30.13R
$$

NEZ044-045-051>053-067-020400-
OMAHA AREA

CITY           SKY/WX    TMP DP  RH WIND       PRES   REMARKS
OMAHA EPPLEY   MOCLDY    49  45  86 N3        30.15S
BLAIR          CLOUDY    48  46  90 NW3       30.16S
FREMONT        CLOUDY    48  45  89 NW3       30.17S
OFFUTT AFB     CLOUDY    48  46  91 NW3       30.15S
$$




USA.gov is the U.S. government's official web portal to all federal, state and local government web resources and services.